Location: Waco, TX
(31.5480°N, 97.1670°W)
Time: 19:32:17
(UTC-05:00)

ISS - Pass Details

Date: 13 January 2019
Orbit: 408 x 410 km, 51.6° (Epoch: 25 April)

Event Time Altitude Azimuth Distance (km) Brightness Sun altitude
Rises 21:30:58 0° 212° (SSW) 2,342 - -47.4°
Maximum altitude 21:36:18 46° 131° (SE) 569 - -48.5°
Drops below altitude 10° 21:39:31 10° 57° (ENE) 1,490 - -49.2°
Sets 21:41:39 0° 51° (NE) 2,355 - -49.6°
